Regional Weather Roundup
Issued by NWS

Home | Current Version | Previous Version | Text Only | Print | Product List | Glossary On
Versions: 1 2 3 4 5 6 7 8 9 10 11 12 13 14 15 16 17 18 19 20 21 22 23 24 25 26 27 28 29 30 31 32 33 34 35 36 37 38 39 40 41 42 43 44 45 46 47 48 49 50
000
ASUS43 KTOP 041359
RWRKS

WEATHER ROUNDUP FOR KANSAS
NATIONAL WEATHER SERVICE GOODLAND KS
800 AM CST SUN DEC 04 2016

NOTE:  "FAIR" INDICATES FEW OR NO CLOUDS BELOW 12,000 FEET WITH NO
SIGNIFICANT WEATHER AND/OR OBSTRUCTIONS TO VISIBILITY.

KSZ001>006-013>018-027>032-041>047-041500-
NORTHWEST KANSAS

CITY           SKY/WX    TMP DP  RH WIND       PRES   REMARKS
GOODLAND       CLEAR     20  11  68 W10       30.04R WCI   9
HAYS           CLEAR     26  25  96 W9        30.05R
HILL CITY      CLEAR     25  19  78 W6        30.05R
RUSSELL        CLEAR     28  27  96 W9        30.02R
$$

KSZ061>065-074>080-084>089-041500-
SOUTHWEST KANSAS

CITY           SKY/WX    TMP DP  RH WIND       PRES   REMARKS
DODGE CITY     CLEAR     26  21  81 NW9       30.06R
ELKHART          N/A     23  11  60 W6          N/A
GARDEN CITY    CLEAR     20  16  84 NW10      30.06R WCI   9
GREAT BEND     CLEAR     31  30  96 W5        30.05R
LIBERAL        CLEAR     25  19  80 NW5       30.09R
$$

KSZ066>073-081>083-090>101-041500-
SOUTHEAST KANSAS

CITY           SKY/WX    TMP DP  RH WIND       PRES   REMARKS
CHANUTE        CLOUDY    41  39  93 CALM      30.02S
COFFEYVILLE    CLOUDY    42  42 100 CALM      30.03S
HUTCHINSON     FOG       35  34  96 NW13      30.05R VSB 1   WCI  26
MEDICINE LODGE   N/A     36  35  96 NW7       30.06R
NEWTON         CLOUDY    38  37  97 NW8       30.03S
PARSONS        LGT RAIN  41  41 100 CALM      30.04R
WICHITA INTL   PTCLDY    37  36  96 W3        30.04R
WICHITA JABRA  CLOUDY    40  39  97 W6        30.03R
WINFIELD       CLOUDY    41  41 100 NW5       30.06R FOG
$$

KSZ007>012-019>026-033>040-048>060-102>105-041500-
NORTHEAST KANSAS

CITY           SKY/WX    TMP DP  RH WIND       PRES   REMARKS
CONCORDIA      CLOUDY    31  31 100 W9        30.03R FOG
EMPORIA        CLOUDY    37  36  96 W3        30.02R
LAWRENCE       LGT RAIN  38  36  92 W7        30.03R
MANHATTAN      CLOUDY    38  35  89 W6        30.03R
OLATHE IND     CLOUDY    37  36  96 W7        30.01S
OLATHE EXE     MIX PCPN  36  34  92 SW6       30.00S
SALINA         CLOUDY    34  33  96 NW9       30.05R FOG
TOPEKA BILLARD CLOUDY    38  35  89 W3        30.03R
TOPEKA FORBES  CLOUDY    39  36  89 W3        30.02R
$$



USA.gov is the U.S. government's official web portal to all federal, state and local government web resources and services.